Flag for U.S.A. Weather past 2 weeks in Tampa, Florida, U.S.A.

Now
81 °F

Passing clouds.


Feels Like: 86 °F
Forecast: 76 / 94 °F
Wind: 7 mph from North

Location: Tampa International Airport

Current Time: May 22, 2015 at 9:12:01 AM

Latest Report: May 22, 2015 at 7:53 AM


Visibility: 10 mi

Pressure: 30.06 "Hg

Humidity: 77%

Dew point: 73 °F

Location of TampaLocation

Historic Weather in Tampa — Graph

°F

Tampa temperature yesterday

Maximum temperature yesterday: 89 °F (at 2:53 PM)
Minimum temperature yesterday: 77 °F (at 2:53 AM)
Average temperature yesterday: 82 °F

Past Weeks' High & Low Weather Summary

 TemperatureHumidityPressure
High94 °F (May 12, 4:53 PM)94% (May 12, 11:53 PM)30.22 "Hg (May 12, 11:53 PM)
Low68 °F (May 8, 4:53 AM)30% (May 8, 2:53 PM)29.94 "Hg (May 20, 6:53 PM)
Average80 °F66%30.09 "Hg
* Reported May 7 7:53 AM — May 22 7:53 AM, Tampa, Weather by CustomWeather, © 2015

Note: Actual official high and low records may vary slightly from our data, if they occured in-between our weather recording intervals... More about our weather records

Advertising

Tampa weather history for previous 24 hours

 ConditionsComfort  
Time TempWeatherWind HumidityBarometerVisibility
7:53 AM
Fri, May 22
81 °FPassing clouds.7 mph77%30.06 "Hg10 mi
6:53 AM78 °FPassing clouds.3 mph82%30.04 "Hg10 mi
5:53 AM79 °FPassing clouds.3 mph79%30.03 "Hg10 mi
4:53 AM79 °FPassing clouds.3 mph82%30.01 "Hg10 mi
3:53 AM79 °FPassing clouds.5 mph82%30.01 "Hg10 mi
2:53 AM78 °FClear.5 mph82%30.02 "Hg10 mi
1:53 AM79 °FClear.5 mph79%30.02 "Hg10 mi
12:53 AM79 °FClear.6 mph79%30.03 "Hg10 mi
11:53 PM
Thu, May 21
80 °FClear.5 mph76%30.03 "Hg10 mi
10:53 PM80 °FClear.5 mph74%30.02 "Hg10 mi
9:53 PM80 °FPassing clouds.5 mph74%30.00 "Hg10 mi
8:53 PM81 °FPassing clouds.6 mph67%29.98 "Hg10 mi
7:53 PM83 °FPassing clouds.7 mph61%29.98 "Hg10 mi
6:53 PM86 °FScattered clouds.9 mph55%29.96 "Hg10 mi
5:53 PM87 °FScattered clouds.10 mph53%29.95 "Hg10 mi
4:53 PM87 °FScattered clouds.14 mph57%29.97 "Hg10 mi
3:53 PM87 °FPassing clouds.14 mph57%29.98 "Hg10 mi
2:53 PM89 °FScattered clouds.13 mph55%29.98 "Hg10 mi
1:53 PM87 °FScattered clouds.9 mph57%29.99 "Hg10 mi
12:53 PM87 °FScattered clouds.10 mph59%30.00 "Hg10 mi
11:53 AM84 °FPartly sunny.10 mph65%30.02 "Hg10 mi
10:53 AM85 °FScattered clouds.10 mph63%30.03 "Hg10 mi
9:53 AM83 °FScattered clouds.9 mph65%30.03 "Hg10 mi
Weather by CustomWeather, © 2015

See weather overviewHow to use our weather pages